,,PA_Meas_PMT16A,,PR_Meas_QMR101_102,,RH_Meas_QMH101,,SR_Meas_QMS101,,TA_Meas_QMH101,,GenWind,,GenWind,
time,status,PA,status,PR,status,RH,status,SR,status,TA,status,DirAvg,status,SpdAvg,
2009-12-25, 00:00:04,VALID,918.001,VALID,0,VALID,97.6712,VALID,0.107441,VALID,20.2052,VALID,229,VALID,0.777734,
2009-12-25, 00:01:04,VALID,917.953,VALID,0,VALID,97.6865,VALID,0.107441,VALID,20.2052,VALID,229,VALID,0.601172,
2009-12-25, 00:02:04,VALID,917.92,VALID,0,VALID,97.6712,VALID,0.107441,VALID,20.2052,VALID,229,VALID,0.711719,
2009-12-25, 00:03:04,VALID,917.897,VALID,0,VALID,97.6941,VALID,0.107441,VALID,20.2052,VALID,229,VALID,0.808984,
2009-12-25, 00:04:04,VALID,917.882,VALID,0,VALID,97.6788,VALID,0.107441,VALID,20.2263,VALID,229,VALID,0.764063,
2009-12-25, 00:05:04,VALID,917.825,VALID,0,VALID,97.6865,VALID,0.107441,VALID,20.2052,VALID,229,VALID,0.967578,
2009-12-25, 00:06:04,VALID,917.823,VALID,0,VALID,97.6865,VALID,0.107441,VALID,20.2052,VALID,229,VALID,0.664453,
2009-12-25, 00:07:04,VALID,917.774,VALID,0,VALID,97.6788,VALID,0.107441,VALID,20.2458,VALID,229,VALID,0.385156,
2009-12-25, 00:08:04,VALID,917.745,VALID,0,VALID,97.7017,VALID,0.107441,VALID,20.2263,VALID,139,VALID,0.974219,
2009-12-25, 00:09:04,VALID,917.733,VALID,0,VALID,97.6788,VALID,0.107441,VALID,20.1678,VALID,152,VALID,0.903906,
2009-12-25, 00:10:04,VALID,917.73,VALID,0,VALID,97.6636,VALID,0.107441,VALID,20.1662,VALID,155,VALID,0.704687,
2009-12-25, 00:11:04,VALID,917.707,VALID,0,VALID,97.6636,VALID,0.107441,VALID,20.1483,VALID,155,VALID,0.425781,
2009-12-25, 00:12:04,VALID,917.719,VALID,0,VALID,97.6636,VALID,0.107441,VALID,20.1483,VALID,155,VALID,0.175391,
2009-12-25, 00:13:04,VALID,917.724,VALID,0,VALID,97.6865,VALID,0.107441,VALID,20.1272,VALID,155,VALID,0.040625,
2009-12-25, 00:14:04,VALID,917.698,VALID,0,VALID,97.7017,VALID,0.107441,VALID,20.1272,VALID,155,VALID,0,
2009-12-25, 00:15:04,VALID,917.677,VALID,0,VALID,97.6941,VALID,0,VALID,20.1272,VALID,155,VALID,0.0320312,
2009-12-25, 00:16:04,VALID,917.724,VALID,0,VALID,97.6941,VALID,0,VALID,20.1678,VALID,155,VALID,0.0121094,
2009-12-25, 00:17:04,VALID,917.737,VALID,0,VALID,97.6941,VALID,0,VALID,20.2068,VALID,155,VALID,0,
2009-12-25, 00:18:04,VALID,917.726,VALID,0,VALID,97.6788,VALID,0,VALID,20.2068,VALID,155,VALID,0,
2009-12-25, 00:19:04,VALID,917.735,VALID,0,VALID,97.6712,VALID,0,VALID,20.2278,VALID,155,VALID,0,
2009-12-25, 00:20:04,VALID,917.735,VALID,0,VALID,97.7017,VALID,0,VALID,20.1873,VALID,155,VALID,0,
2009-12-25, 00:21:04,VALID,917.712,VALID,0,VALID,97.6636,VALID,0,VALID,20.1888,VALID,155,VALID,0.783984,
2009-12-25, 00:22:04,VALID,917.711,VALID,0,VALID,97.6636,VALID,0,VALID,20.1288,VALID,155,VALID,0.717969,
2009-12-25, 00:23:04,VALID,917.696,VALID,0,VALID,97.6636,VALID,0,VALID,20.1108,VALID,155,VALID,0.679297,
2009-12-25, 00:24:04,VALID,917.678,VALID,0,VALID,97.6941,VALID,0,VALID,20.0898,VALID,155,VALID,0.349219,
2009-12-25, 00:25:04,VALID,917.657,VALID,0,VALID,97.6865,VALID,0,VALID,20.1093,VALID,155,VALID,0.455859,
2009-12-25, 00:26:04,VALID,917.661,VALID,0,VALID,97.6941,VALID,0,VALID,20.1093,VALID,155,VALID,0.389844,
2009-12-25, 00:27:04,VALID,917.633,VALID,0,VALID,97.7017,VALID,0,VALID,20.1108,VALID,155,VALID,0.485547,
2009-12-25, 00:28:04,VALID,917.639,VALID,0,VALID,97.6788,VALID,0,VALID,20.1303,VALID,155,VALID,0.467578,
2009-12-25, 00:29:04,VALID,917.619,VALID,0,VALID,97.6788,VALID,0,VALID,20.1108,VALID,155,VALID,0.18125,
2009-12-25, 00:30:04,VALID,917.611,VALID,0,VALID,97.6941,VALID,0,VALID,20.1303,VALID,155,VALID,0,
2009-12-25, 00:31:04,VALID,917.611,VALID,0,VALID,97.7017,VALID,0,VALID,20.1288,VALID,155,VALID,0.00585938,
2009-12-25, 00:32:04,VALID,917.609,VALID,0,VALID,97.6712,VALID,0,VALID,20.1693,VALID,155,VALID,0,
2009-12-25, 00:33:04,VALID,917.626,VALID,0,VALID,97.7017,VALID,0,VALID,20.1498,VALID,155,VALID,0.003125,
2009-12-25, 00:34:04,VALID,917.619,VALID,0,VALID,97.6941,VALID,0,VALID,20.1678,VALID,155,VALID,0,
2009-12-25, 00:35:04,VALID,917.616,VALID,0,VALID,97.6712,VALID,0,VALID,20.1678,VALID,155,VALID,0,
2009-12-25, 00:36:04,VALID,917.6,VALID,0,VALID,97.6941,VALID,0,VALID,20.1288,VALID,155,VALID,0,
2009-12-25, 00:37:04,VALID,917.592,VALID,0,VALID,97.6941,VALID,0,VALID,20.1303,VALID,155,VALID,0.825391,
2009-12-25, 00:38:04,VALID,917.603,VALID,0,VALID,97.6636,VALID,0,VALID,20.0898,VALID,155,VALID,0.814062,
2009-12-25, 00:39:04,VALID,917.581,VALID,0,VALID,97.6712,VALID,0,VALID,20.0703,VALID,155,VALID,0.697266,
2009-12-25, 00:40:04,VALID,917.557,VALID,0,VALID,97.6788,VALID,0,VALID,20.0913,VALID,176,VALID,0.803516,
2009-12-25, 00:41:04,VALID,917.52,VALID,0,VALID,97.6941,VALID,0,VALID,20.0898,VALID,176,VALID,0.605078,
2009-12-25, 00:42:04,VALID,917.526,VALID,0,VALID,97.6941,VALID,0,VALID,20.1108,VALID,176,VALID,0.376953,
2009-12-25, 00:43:04,VALID,917.512,VALID,0,VALID,97.6788,VALID,0,VALID,20.0913,VALID,176,VALID,0.419531,
2009-12-25, 00:44:04,VALID,917.524,VALID,0,VALID,97.7093,VALID,0,VALID,20.0913,VALID,176,VALID,0.340625,
2009-12-25, 00:45:04,VALID,917.504,VALID,0,VALID,97.7017,VALID,0,VALID,20.0703,VALID,176,VALID,0.253516,
2009-12-25, 00:46:04,VALID,917.501,VALID,0,VALID,97.6788,VALID,0,VALID,20.0913,VALID,176,VALID,0.411719,
2009-12-25, 00:47:04,VALID,917.513,VALID,0,VALID,97.6788,VALID,0,VALID,20.0718,VALID,176,VALID,0.782422,
2009-12-25, 00:48:04,VALID,917.517,VALID,0,VALID,97.6865,VALID,0,VALID,20.0508,VALID,176,VALID,0.230078,
2009-12-25, 00:49:04,VALID,917.532,VALID,0,VALID,97.6788,VALID,0,VALID,20.0703,VALID,176,VALID,0.264844,
2009-12-25, 00:50:04,VALID,917.542,VALID,0,VALID,97.6941,VALID,0,VALID,20.0703,VALID,176,VALID,0,
2009-12-25, 00:51:04,VALID,917.515,VALID,0,VALID,97.6941,VALID,0,VALID,20.0703,VALID,177,VALID,0.275,
2009-12-25, 00:52:04,VALID,917.536,VALID,0,VALID,97.7246,VALID,0,VALID,20.0898,VALID,176,VALID,0.514063,
2009-12-25, 00:53:04,VALID,917.538,VALID,0,VALID,97.7017,VALID,0,VALID,20.0898,VALID,176,VALID,0.445703,
2009-12-25, 00:54:04,VALID,917.534,VALID,0,VALID,97.6941,VALID,0,VALID,20.1288,VALID,176,VALID,0.350391,
2009-12-25, 00:55:04,VALID,917.573,VALID,0,VALID,97.6941,VALID,0,VALID,20.1483,VALID,176,VALID,0.303125,
2009-12-25, 00:56:04,VALID,917.525,VALID,0,VALID,97.7017,VALID,0,VALID,20.2083,VALID,176,VALID,0.0542969,
2009-12-25, 00:57:04,VALID,917.527,VALID,0,VALID,97.6865,VALID,0,VALID,20.2083,VALID,176,VALID,0.221484,
2009-12-25, 00:58:04,VALID,917.582,VALID,0,VALID,97.6941,VALID,0,VALID,20.2278,VALID,176,VALID,0,
2009-12-25, 00:59:04,VALID,917.586,VALID,0,VALID,97.6941,VALID,0,VALID,20.2068,VALID,176,VALID,0,
2009-12-25, 01:00:04,VALID,917.546,VALID,0,VALID,97.6865,VALID,0,VALID,20.2473,VALID,176,VALID,0.316797,
2009-12-25, 01:01:04,VALID,917.562,VALID,0,VALID,97.7017,VALID,0,VALID,20.1857,VALID,176,VALID,0.163672,
2009-12-25, 01:02:04,VALID,917.495,VALID,0,VALID,97.7017,VALID,0,VALID,20.1678,VALID,176,VALID,0.147266,
2009-12-25, 01:03:04,VALID,917.504,VALID,0,VALID,97.6941,VALID,0,VALID,20.1483,VALID,176,VALID,0.2375,
2009-12-25, 01:04:04,VALID,917.502,VALID,0,VALID,97.6865,VALID,0,VALID,20.1093,VALID,176,VALID,0.225391,
2009-12-25, 01:05:04,VALID,917.506,VALID,0,VALID,97.6941,VALID,0,VALID,20.0882,VALID,176,VALID,0.330078,
2009-12-25, 01:06:04,VALID,917.462,VALID,0,VALID,97.6865,VALID,0,VALID,20.0913,VALID,176,VALID,0.369922,
2009-12-25, 01:07:04,VALID,917.46,VALID,0,VALID,97.6865,VALID,0,VALID,20.0703,VALID,176,VALID,0.335547,
2009-12-25, 01:08:04,VALID,917.454,VALID,0,VALID,97.7093,VALID,0,VALID,20.0898,VALID,176,VALID,0.0285156,
2009-12-25, 01:09:04,VALID,917.404,VALID,0,VALID,97.6941,VALID,0,VALID,20.0508,VALID,176,VALID,0.382422,
2009-12-25, 01:10:04,VALID,917.384,VALID,0,VALID,97.7017,VALID,0,VALID,20.0508,VALID,176,VALID,0.120312,
2009-12-25, 01:11:04,VALID,917.382,VALID,0,VALID,97.6941,VALID,0,VALID,20.0703,VALID,176,VALID,0,
2009-12-25, 01:12:04,VALID,917.36,VALID,0,VALID,97.6865,VALID,0,VALID,20.0898,VALID,176,VALID,0,
2009-12-25, 01:13:04,VALID,917.372,VALID,0,VALID,97.7017,VALID,0,VALID,20.0898,VALID,176,VALID,0,
2009-12-25, 01:14:04,VALID,917.355,VALID,0,VALID,97.6865,VALID,0,VALID,20.0898,VALID,176,VALID,0.174219,
2009-12-25, 01:15:04,VALID,917.336,VALID,0,VALID,97.6941,VALID,0,VALID,20.0898,VALID,176,VALID,0.278906,
2009-12-25, 01:16:04,VALID,917.356,VALID,0,VALID,97.6865,VALID,0,VALID,20.1093,VALID,176,VALID,0.433203,
2009-12-25, 01:17:04,VALID,917.355,VALID,0,VALID,97.6636,VALID,0,VALID,20.0913,VALID,176,VALID,0.587109,
2009-12-25, 01:18:04,VALID,917.35,VALID,0,VALID,97.6941,VALID,0,VALID,20.0523,VALID,176,VALID,0.641406,
2009-12-25, 01:19:04,VALID,917.342,VALID,0,VALID,97.6865,VALID,0,VALID,20.0313,VALID,176,VALID,0.59375,
2009-12-25, 01:20:04,VALID,917.374,VALID,0,VALID,97.6788,VALID,0,VALID,20.0118,VALID,176,VALID,0.379687,
2009-12-25, 01:21:04,VALID,917.343,VALID,0,VALID,97.6865,VALID,0,VALID,20.0328,VALID,176,VALID,0.196484,
2009-12-25, 01:22:04,VALID,917.377,VALID,0,VALID,97.6941,VALID,0,VALID,20.0313,VALID,176,VALID,0.216016,
2009-12-25, 01:23:04,VALID,917.366,VALID,0,VALID,97.6788,VALID,0,VALID,20.0523,VALID,176,VALID,0.137891,
2009-12-25, 01:24:04,VALID,917.317,VALID,0,VALID,97.7169,VALID,0,VALID,20.0523,VALID,176,VALID,0.133594,
2009-12-25, 01:25:04,VALID,917.312,VALID,0,VALID,97.7093,VALID,0,VALID,20.0718,VALID,176,VALID,0.279297,
2009-12-25, 01:26:04,VALID,917.339,VALID,0,VALID,97.7017,VALID,0,VALID,20.0718,VALID,176,VALID,0.279297,
2009-12-25, 01:27:04,VALID,917.307,VALID,0,VALID,97.6712,VALID,0,VALID,20.0703,VALID,176,VALID,0,
2009-12-25, 01:28:04,VALID,917.279,VALID,0,VALID,97.7246,VALID,0,VALID,20.0718,VALID,176,VALID,0,
2009-12-25, 01:29:04,VALID,917.25,VALID,0,VALID,97.7169,VALID,0,VALID,20.0913,VALID,176,VALID,0,
2009-12-25, 01:30:04,VALID,917.248,VALID,0,VALID,97.7017,VALID,0,VALID,20.0508,VALID,176,VALID,0,
2009-12-25, 01:31:04,VALID,917.213,VALID,0,VALID,97.7093,VALID,0,VALID,20.0508,VALID,176,VALID,0,
2009-12-25, 01:32:04,VALID,917.23,VALID,0,VALID,97.6865,VALID,0,VALID,20.0508,VALID,176,VALID,0,
2009-12-25, 01:33:04,VALID,917.175,VALID,0,VALID,97.7017,VALID,0,VALID,20.0718,VALID,176,VALID,0,
2009-12-25, 01:34:04,VALID,917.166,VALID,0,VALID,97.7322,VALID,0,VALID,20.0898,VALID,176,VALID,0.0613281,
2009-12-25, 01:35:04,VALID,917.134,VALID,0,VALID,97.7017,VALID,0,VALID,20.0898,VALID,176,VALID,0.392578,
2009-12-25, 01:36:04,VALID,917.122,VALID,0,VALID,97.7017,VALID,0.107441,VALID,20.1093,VALID,176,VALID,0.460156,
2009-12-25, 01:37:04,VALID,917.106,VALID,0,VALID,97.6941,VALID,0,VALID,20.0913,VALID,176,VALID,0.595312,
2009-12-25, 01:38:04,VALID,917.091,VALID,0,VALID,97.6788,VALID,0,VALID,20.0898,VALID,176,VALID,0.41875,
2009-12-25, 01:39:04,VALID,917.116,VALID,0,VALID,97.7017,VALID,0,VALID,20.0913,VALID,176,VALID,0.372266,
2009-12-25, 01:40:04,VALID,917.094,VALID,0,VALID,97.6865,VALID,0,VALID,20.0508,VALID,176,VALID,0.288672,
2009-12-25, 01:41:04,VALID,917.08,VALID,0,VALID,97.6941,VALID,0,VALID,20.0313,VALID,176,VALID,0.245703,
2009-12-25, 01:42:04,VALID,917.104,VALID,0,VALID,97.6941,VALID,0,VALID,20.0523,VALID,176,VALID,0,
2009-12-25, 01:43:04,VALID,917.058,VALID,0,VALID,97.7169,VALID,0,VALID,20.0328,VALID,176,VALID,0.392969,
2009-12-25, 01:44:04,VALID,917.085,VALID,0,VALID,97.6865,VALID,0,VALID,20.0328,VALID,176,VALID,0.315234,
2009-12-25, 01:45:04,VALID,917.055,VALID,0,VALID,97.7093,VALID,0,VALID,20.0133,VALID,176,VALID,0.292188,
2009-12-25, 01:46:04,VALID,917.051,VALID,0,VALID,97.7017,VALID,0,VALID,20.0118,VALID,176,VALID,0.321875,
2009-12-25, 01:47:04,VALID,917.047,VALID,0,VALID,97.6941,VALID,0.107441,VALID,19.9908,VALID,176,VALID,0.451562,
2009-12-25, 01:48:04,VALID,917.054,VALID,0,VALID,97.7169,VALID,0.107441,VALID,20.0118,VALID,176,VALID,0.129297,
2009-12-25, 01:49:04,VALID,916.986,VALID,0,VALID,97.7093,VALID,0,VALID,20.0118,VALID,176,VALID,0.425,
2009-12-25, 01:50:04,VALID,916.989,VALID,0,VALID,97.6941,VALID,0.107441,VALID,20.0103,VALID,176,VALID,0.444141,
2009-12-25, 01:51:04,VALID,916.977,VALID,0,VALID,97.6788,VALID,0.107441,VALID,20.0118,VALID,176,VALID,0.420312,
2009-12-25, 01:52:04,VALID,916.958,VALID,0,VALID,97.6788,VALID,0.107441,VALID,19.9713,VALID,176,VALID,0.494141,
2009-12-25, 01:53:04,VALID,916.935,VALID,0,VALID,97.7246,VALID,0,VALID,20.0118,VALID,176,VALID,0.36875,
2009-12-25, 01:54:04,VALID,916.909,VALID,0,VALID,97.7017,VALID,0,VALID,20.0118,VALID,176,VALID,0,
2009-12-25, 01:55:04,VALID,916.919,VALID,0,VALID,97.6865,VALID,0.107441,VALID,20.0298,VALID,176,VALID,0.147656,
2009-12-25, 01:56:04,VALID,916.903,VALID,0,VALID,97.6865,VALID,0,VALID,20.0313,VALID,176,VALID,0.291797,
2009-12-25, 01:57:04,VALID,916.912,VALID,0,VALID,97.7093,VALID,0.107441,VALID,20.0313,VALID,176,VALID,0.386328,
2009-12-25, 01:58:04,VALID,916.879,VALID,0,VALID,97.7246,VALID,0.107441,VALID,20.0313,VALID,176,VALID,0.153516,
2009-12-25, 01:59:04,VALID,916.856,VALID,0,VALID,97.7017,VALID,0.107441,VALID,20.0103,VALID,176,VALID,0.324609,
2009-12-25, 02:00:04,VALID,916.874,VALID,0,VALID,97.7017,VALID,0.107441,VALID,19.9908,VALID,176,VALID,0.421094,
2009-12-25, 02:01:04,VALID,916.894,VALID,0,VALID,97.7093,VALID,0,VALID,20.0328,VALID,176,VALID,0.365234,
2009-12-25, 02:02:04,VALID,916.87,VALID,0,VALID,97.7093,VALID,0,VALID,20.0328,VALID,176,VALID,0.396875,
2009-12-25, 02:03:04,VALID,916.864,VALID,0,VALID,97.7093,VALID,0,VALID,20.0328,VALID,176,VALID,0.0183594,
2009-12-25, 02:04:04,VALID,916.868,VALID,0,VALID,97.7093,VALID,0,VALID,20.0133,VALID,176,VALID,0.142969,
2009-12-25, 02:05:04,VALID,916.878,VALID,0,VALID,97.7093,VALID,0,VALID,20.0133,VALID,176,VALID,0,
2009-12-25, 02:06:04,VALID,916.883,VALID,0,VALID,97.7169,VALID,0,VALID,20.0133,VALID,176,VALID,0,
2009-12-25, 02:07:04,VALID,916.897,VALID,0,VALID,97.7246,VALID,0,VALID,20.0118,VALID,176,VALID,0.11875,
2009-12-25, 02:08:04,VALID,916.907,VALID,0,VALID,97.7093,VALID,0,VALID,20.0523,VALID,176,VALID,0.270312,
2009-12-25, 02:09:04,VALID,916.869,VALID,0,VALID,97.7093,VALID,0,VALID,20.0703,VALID,176,VALID,0.427344,
2009-12-25, 02:10:04,VALID,916.875,VALID,0,VALID,97.7017,VALID,0,VALID,20.0913,VALID,176,VALID,0.401953,
2009-12-25, 02:11:04,VALID,916.886,VALID,0,VALID,97.7017,VALID,0,VALID,20.0718,VALID,176,VALID,0.641016,
2009-12-25, 02:12:04,VALID,916.867,VALID,0,VALID,97.6941,VALID,0,VALID,20.0313,VALID,176,VALID,0.796094,
2009-12-25, 02:13:04,VALID,916.9,VALID,0,VALID,97.6788,VALID,0,VALID,19.9923,VALID,176,VALID,0.592969,
2009-12-25, 02:14:04,VALID,916.863,VALID,0,VALID,97.6941,VALID,0,VALID,19.9728,VALID,176,VALID,0.599219,
2009-12-25, 02:15:04,VALID,916.861,VALID,0,VALID,97.7017,VALID,0,VALID,19.9533,VALID,176,VALID,0.659375,
2009-12-25, 02:16:04,VALID,916.832,VALID,0,VALID,97.6788,VALID,0,VALID,19.9548,VALID,176,VALID,0.555078,
2009-12-25, 02:17:04,VALID,916.835,VALID,0,VALID,97.7169,VALID,0,VALID,19.9743,VALID,176,VALID,0.161719,
2009-12-25, 02:18:04,VALID,916.808,VALID,0,VALID,97.7246,VALID,0,VALID,19.9728,VALID,176,VALID,0.104687,
2009-12-25, 02:19:04,VALID,916.804,VALID,0,VALID,97.7169,VALID,0,VALID,19.9338,VALID,176,VALID,0.410156,
2009-12-25, 02:20:04,VALID,916.795,VALID,0,VALID,97.7169,VALID,0,VALID,19.9143,VALID,176,VALID,0.502344,
2009-12-25, 02:21:04,VALID,916.791,VALID,0,VALID,97.7017,VALID,0,VALID,19.9548,VALID,176,VALID,0.619531,
2009-12-25, 02:22:04,VALID,916.771,VALID,0,VALID,97.7246,VALID,0,VALID,19.9143,VALID,176,VALID,0.640625,
2009-12-25, 02:23:04,VALID,916.772,VALID,0,VALID,97.7169,VALID,0,VALID,19.9158,VALID,176,VALID,0.614453,
2009-12-25, 02:24:04,VALID,916.776,VALID,0,VALID,97.7246,VALID,0,VALID,19.9548,VALID,176,VALID,0.275781,
2009-12-25, 02:25:04,VALID,916.773,VALID,0,VALID,97.7093,VALID,0,VALID,19.9143,VALID,176,VALID,0.433594,
2009-12-25, 02:26:04,VALID,916.752,VALID,0,VALID,97.7169,VALID,0,VALID,19.9353,VALID,176,VALID,0.296484,
2009-12-25, 02:27:04,VALID,916.702,VALID,0,VALID,97.7246,VALID,0,VALID,19.8948,VALID,176,VALID,0.555078,
2009-12-25, 02:28:04,VALID,916.709,VALID,0,VALID,97.7169,VALID,0,VALID,19.8753,VALID,176,VALID,0.855859,
2009-12-25, 02:29:04,VALID,916.723,VALID,0,VALID,97.7093,VALID,0,VALID,19.8753,VALID,176,VALID,0.559375,
2009-12-25, 02:30:04,VALID,916.688,VALID,0,VALID,97.7093,VALID,0,VALID,19.8948,VALID,176,VALID,0.436719,
2009-12-25, 02:31:04,VALID,916.668,VALID,0,VALID,97.7169,VALID,0,VALID,19.9353,VALID,176,VALID,0.183203,
2009-12-25, 02:32:04,VALID,916.671,VALID,0,VALID,97.7246,VALID,0,VALID,19.9548,VALID,176,VALID,0,
2009-12-25, 02:33:04,VALID,916.623,VALID,0,VALID,97.7246,VALID,0,VALID,19.9158,VALID,176,VALID,0,
2009-12-25, 02:34:04,VALID,916.616,VALID,0,VALID,97.7246,VALID,0,VALID,19.9353,VALID,176,VALID,0,
2009-12-25, 02:35:04,VALID,916.623,VALID,0,VALID,97.7322,VALID,0,VALID,19.9338,VALID,176,VALID,0,
2009-12-25, 02:36:04,VALID,916.599,VALID,0,VALID,97.7246,VALID,0,VALID,19.9353,VALID,176,VALID,0,
2009-12-25, 02:37:04,VALID,916.582,VALID,0,VALID,97.7169,VALID,0,VALID,19.8948,VALID,176,VALID,0,
2009-12-25, 02:38:04,VALID,916.594,VALID,0,VALID,97.7246,VALID,0,VALID,19.9158,VALID,176,VALID,0,
2009-12-25, 02:39:04,VALID,916.568,VALID,0,VALID,97.7169,VALID,0,VALID,19.9158,VALID,176,VALID,0,
2009-12-25, 02:40:04,VALID,916.572,VALID,0,VALID,97.7246,VALID,0,VALID,19.8753,VALID,176,VALID,0,
2009-12-25, 02:41:04,VALID,916.54,VALID,0,VALID,97.7322,VALID,0,VALID,19.8753,VALID,176,VALID,0,
2009-12-25, 02:42:04,VALID,916.545,VALID,0,VALID,97.7017,VALID,0,VALID,19.8168,VALID,176,VALID,0.671484,
2009-12-25, 02:43:04,VALID,916.528,VALID,0,VALID,97.7246,VALID,0,VALID,19.8183,VALID,176,VALID,0.71875,
2009-12-25, 02:44:04,VALID,916.508,VALID,0,VALID,97.7474,VALID,0,VALID,19.7973,VALID,175,VALID,0.706641,
2009-12-25, 02:45:04,VALID,916.536,VALID,0,VALID,97.7246,VALID,0,VALID,19.7988,VALID,175,VALID,0.253516,
2009-12-25, 02:46:04,VALID,916.488,VALID,0,VALID,97.7246,VALID,0,VALID,19.7988,VALID,175,VALID,0.723828,
2009-12-25, 02:47:04,VALID,916.521,VALID,0,VALID,97.7474,VALID,0,VALID,19.8183,VALID,175,VALID,0.512109,
2009-12-25, 02:48:04,VALID,916.518,VALID,0,VALID,97.7551,VALID,0,VALID,19.8183,VALID,175,VALID,0.372656,
2009-12-25, 02:49:04,VALID,916.517,VALID,0,VALID,97.7322,VALID,0,VALID,19.7973,VALID,175,VALID,0.223047,
2009-12-25, 02:50:04,VALID,916.519,VALID,0,VALID,97.7322,VALID,0,VALID,19.7778,VALID,175,VALID,0.205469,
2009-12-25, 02:51:04,VALID,916.497,VALID,0,VALID,97.7398,VALID,0,VALID,19.8183,VALID,175,VALID,0.203125,
2009-12-25, 02:52:04,VALID,916.481,VALID,0,VALID,97.7474,VALID,0,VALID,19.8183,VALID,175,VALID,0.1625,
2009-12-25, 02:53:04,VALID,916.506,VALID,0,VALID,97.7398,VALID,0,VALID,19.8393,VALID,175,VALID,0.457422,
2009-12-25, 02:54:04,VALID,916.503,VALID,0,VALID,97.7474,VALID,0,VALID,19.8183,VALID,175,VALID,0.673047,
2009-12-25, 02:55:04,VALID,916.501,VALID,0,VALID,97.7246,VALID,0,VALID,19.8183,VALID,175,VALID,0.750391,
2009-12-25, 02:56:04,VALID,916.517,VALID,0,VALID,97.7474,VALID,0,VALID,19.8363,VALID,175,VALID,0.546484,
2009-12-25, 02:57:04,VALID,916.485,VALID,0,VALID,97.7551,VALID,0,VALID,19.8573,VALID,175,VALID,0.302344,
2009-12-25, 02:58:04,VALID,916.507,VALID,0,VALID,97.7474,VALID,0,VALID,19.8378,VALID,174,VALID,0.503516,
2009-12-25, 02:59:04,VALID,916.519,VALID,0,VALID,97.7474,VALID,0,VALID,19.8378,VALID,174,VALID,0.00585938,
2009-12-25, 03:00:04,VALID,916.511,VALID,0,VALID,97.7474,VALID,0,VALID,19.8573,VALID,174,VALID,0.39375,
2009-12-25, 03:01:04,VALID,916.483,VALID,0,VALID,97.7398,VALID,0,VALID,19.8558,VALID,174,VALID,0.578516,
2009-12-25, 03:02:04,VALID,916.48,VALID,0,VALID,97.7474,VALID,0.107441,VALID,19.8363,VALID,174,VALID,0.318359,
2009-12-25, 03:03:04,VALID,916.481,VALID,0,VALID,97.7474,VALID,0.107441,VALID,19.7958,VALID,174,VALID,0.399219,
2009-12-25, 03:04:04,VALID,916.494,VALID,0,VALID,97.7474,VALID,0,VALID,19.7958,VALID,174,VALID,0.576172,
2009-12-25, 03:05:04,VALID,916.494,VALID,0,VALID,97.7398,VALID,0,VALID,19.7958,VALID,174,VALID,0.564844,
2009-12-25, 03:06:04,VALID,916.467,VALID,0,VALID,97.7398,VALID,0.107441,VALID,19.7973,VALID,174,VALID,0.306641,
2009-12-25, 03:07:04,VALID,916.447,VALID,0,VALID,97.7627,VALID,0,VALID,19.7778,VALID,174,VALID,0.404297,
2009-12-25, 03:08:04,VALID,916.461,VALID,0,VALID,97.7398,VALID,0.107441,VALID,19.7778,VALID,174,VALID,0.380469,
2009-12-25, 03:09:04,VALID,916.44,VALID,0,VALID,97.7551,VALID,0,VALID,19.7568,VALID,174,VALID,0.696094,
2009-12-25, 03:10:04,VALID,916.433,VALID,0,VALID,97.7474,VALID,0,VALID,19.7583,VALID,174,VALID,0.489453,
2009-12-25, 03:11:04,VALID,916.424,VALID,0,VALID,97.7551,VALID,0,VALID,19.7778,VALID,174,VALID,0.6875,
2009-12-25, 03:12:04,VALID,916.43,VALID,0,VALID,97.7551,VALID,0.107441,VALID,19.7583,VALID,174,VALID,0.621484,
2009-12-25, 03:13:04,VALID,916.472,VALID,0,VALID,97.7627,VALID,0.107441,VALID,19.7583,VALID,174,VALID,0.627734,
2009-12-25, 03:14:04,VALID,916.475,VALID,0,VALID,97.7551,VALID,0.107441,VALID,19.7973,VALID,174,VALID,1.02109,
2009-12-25, 03:15:04,VALID,916.454,VALID,0,VALID,97.7779,VALID,0.107441,VALID,19.7778,VALID,174,VALID,0.782812,
2009-12-25, 03:16:04,VALID,916.461,VALID,0,VALID,97.7703,VALID,0,VALID,19.7598,VALID,174,VALID,1.02695,
2009-12-25, 03:17:04,VALID,916.449,VALID,0,VALID,97.7703,VALID,0,VALID,19.7208,VALID,173,VALID,0.673437,
2009-12-25, 03:18:04,VALID,916.448,VALID,0,VALID,97.7856,VALID,0,VALID,19.7208,VALID,173,VALID,0.697656,
2009-12-25, 03:19:04,VALID,916.432,VALID,0,VALID,97.7627,VALID,0,VALID,19.7013,VALID,172,VALID,0.698828,
2009-12-25, 03:20:04,VALID,916.435,VALID,0,VALID,97.7932,VALID,0,VALID,19.6818,VALID,172,VALID,0.786328,
2009-12-25, 03:21:04,VALID,916.4,VALID,0,VALID,97.7703,VALID,0,VALID,19.7013,VALID,171,VALID,0.771484,
2009-12-25, 03:22:04,VALID,916.429,VALID,0,VALID,97.7932,VALID,0,VALID,19.6818,VALID,141,VALID,1.09297,
2009-12-25, 03:23:04,VALID,916.453,VALID,0,VALID,97.7627,VALID,0,VALID,19.6803,VALID,128,VALID,0.930859,
2009-12-25, 03:24:04,VALID,916.394,VALID,0,VALID,97.7703,VALID,0,VALID,19.6803,VALID,128,VALID,1.08789,
2009-12-25, 03:25:04,VALID,916.415,VALID,0,VALID,97.7627,VALID,0,VALID,19.7013,VALID,128,VALID,1.01641,
2009-12-25, 03:26:04,VALID,916.394,VALID,0,VALID,97.7703,VALID,0,VALID,19.7013,VALID,128,VALID,1.03086,
2009-12-25, 03:27:04,VALID,916.405,VALID,0,VALID,97.7779,VALID,0,VALID,19.7208,VALID,128,VALID,1.03945,
2009-12-25, 03:28:04,VALID,916.431,VALID,0,VALID,97.8008,VALID,0,VALID,19.7208,VALID,128,VALID,0.636719,
2009-12-25, 03:29:04,VALID,916.383,VALID,0,VALID,97.7779,VALID,0,VALID,19.7403,VALID,128,VALID,0.497656,
2009-12-25, 03:30:04,VALID,916.398,VALID,0,VALID,97.7856,VALID,0,VALID,19.7193,VALID,125,VALID,1.1043,
2009-12-25, 03:31:04,VALID,916.415,VALID,0,VALID,97.7779,VALID,0,VALID,19.7388,VALID,124,VALID,1.02813,
2009-12-25, 03:32:04,VALID,916.385,VALID,0,VALID,97.7779,VALID,0.107441,VALID,19.7583,VALID,123,VALID,1.25195,
2009-12-25, 03:33:04,VALID,916.404,VALID,0,VALID,97.7856,VALID,0.107441,VALID,19.7388,VALID,122,VALID,1.44297,
2009-12-25, 03:34:04,VALID,916.382,VALID,0,VALID,97.7932,VALID,0,VALID,19.7388,VALID,113,VALID,1.49688,
2009-12-25, 03:35:04,VALID,916.37,VALID,0,VALID,97.7856,VALID,0,VALID,19.7583,VALID,147,VALID,1.41172,
2009-12-25, 03:36:04,VALID,916.352,VALID,0,VALID,97.7703,VALID,0,VALID,19.7793,VALID,138,VALID,0.988672,
2009-12-25, 03:37:04,VALID,916.342,VALID,0,VALID,97.7932,VALID,0,VALID,19.7778,VALID,97,VALID,1.17773,
2009-12-25, 03:38:04,VALID,916.331,VALID,0,VALID,97.7703,VALID,0,VALID,19.7583,VALID,96,VALID,0.751172,
2009-12-25, 03:39:04,VALID,916.311,VALID,0,VALID,97.7779,VALID,0,VALID,19.7388,VALID,95,VALID,0.973437,
2009-12-25, 03:40:04,VALID,916.345,VALID,0,VALID,97.7932,VALID,0,VALID,19.7388,VALID,137,VALID,0.657422,
2009-12-25, 03:41:04,VALID,916.352,VALID,0,VALID,97.7856,VALID,0,VALID,19.7193,VALID,137,VALID,1.36758,
2009-12-25, 03:42:04,VALID,916.335,VALID,0,VALID,97.7627,VALID,0.107441,VALID,19.6983,VALID,150,VALID,1.1082,
2009-12-25, 03:43:04,VALID,916.307,VALID,0,VALID,97.7627,VALID,0.107441,VALID,19.7193,VALID,109,VALID,1.20781,
2009-12-25, 03:44:04,VALID,916.298,VALID,0,VALID,97.7703,VALID,0,VALID,19.6998,VALID,98,VALID,0.952344,